Hourly Data Report for October 24, 2015

All times are specified in Local Standard Time (LST). Add 1 hour to adjust for Daylight Saving Time where and when it is observed.

BATHURST A
NEW BRUNSWICK

47°37'47.000" N
65°44'20.000" W
58.80 m
8100505
71574
ZBF

Download Data

Hourly Data (October 2015)
Hourly Data Report for October 24, 2015
Temp Definition
°C
Dew Point Temp Definition
°C
Rel Hum Definition
%
Wind Dir Definition
10's deg

Wind Spd Definition
km/h
Visibility Definition
km
Stn Press Definition
kPa
Hmdx Definition


Wind Chill Definition


Weather Definition


TIME
00:00 Legend Double Dagger 2.6 -1.9 72 30 9 24.1 102.04     LegendNANA
01:00 Legend Double Dagger 2.4 -2.0 73 28 8 24.1 102.07     LegendNANA
02:00 Legend Double Dagger 2.2 -2.1 73 30 9 24.1 102.11     Cloudy
03:00 Legend Double Dagger 2.0 -2.5 72 31 8 24.1 102.17     LegendNANA
04:00 Legend Double Dagger 1.8 -2.5 73 30 5 24.1 102.18     LegendNANA
05:00 Legend Double Dagger 1.5 -2.6 74 27 9 24.1 102.19     Cloudy
06:00 Legend Double Dagger 1.2 -2.6 76 30 8 24.1 102.22     LegendNANA
07:00 Legend Double Dagger 1.2 -2.2 78 28 6 24.1 102.23     LegendNANA
08:00 Legend Double Dagger 1.3 -1.8 80 27 3 24.1 102.28     Cloudy
09:00 Legend Double Dagger 2.4 -2.0 73 24 9 24.1 102.30     LegendNANA
10:00 Legend Double Dagger 3.2 -1.7 70 36 2 24.1 102.30     LegendNANA
11:00 Legend Double Dagger 4.4 -1.8 64 14 13 24.1 102.24     Mostly Cloudy
12:00 Legend Double Dagger 5.5 -2.1 58 19 11 24.1 102.20     LegendNANA
13:00 Legend Double Dagger 6.7 -1.9 54 21 9 24.1 102.10     LegendNANA
14:00 Legend Double Dagger 7.9 -1.6 51 19 16 24.1 102.00     Mostly Cloudy
15:00 Legend Double Dagger 8.0 -1.2 52 17 17 24.1 101.93     LegendNANA
16:00 Legend Double Dagger 8.1 -0.9 53 18 14 24.1 101.89     LegendNANA
17:00 Legend Double Dagger 6.7 -0.7 59 17 10 24.1 101.88     Mostly Cloudy
18:00 Legend Double Dagger 5.1 -0.5 67 15 8 24.1 101.84     LegendNANA
19:00 Legend Double Dagger 3.9 -0.3 74 20 7 24.1 101.85     LegendNANA
20:00 Legend Double Dagger 3.1 -0.2 79 21 7 24.1 101.85     Mostly Cloudy
21:00 Legend Double Dagger 2.7 -0.1 82 18 9 24.1 101.73     LegendNANA
22:00 Legend Double Dagger 2.7 -0.1 82 19 9 24.1 101.66     LegendNANA
23:00 Legend Double Dagger 2.5 -0.1 83 19 14 24.1 101.53     Mostly Cloudy

Notes on Data Quality.

Legend

  • E = Estimated
  • M = Missing
  • NA = Not Available
  • ‡ = Partner data that is not subject to review by the National Climate Archives
Date modified: